Wind_Speed
12 12 13 13 14 14 14 14 14 14 14 13 11 11 10 9 8 7 6 5 5 4 4 4 4 5 6 7 9 11 13 15 17 19 22 24 26 28 29 30 31 32 33
12 12 12 13 13 13 14 14 14 14 14 13 12 11 10 9 8 8 7 6 5 4 4 4 5 6 6 7 8 9 10 12 14 16 19 21 23 25 27 29 30 31 32
12 12 12 12 12 13 13 14 14 14 14 13 13 12 11 10 9 8 7 6 6 5 5 5 5 6 6 7 7 9 10 11 13 14 16 18 21 23 25 27 28 29 31
12 12 12 12 12 12 13 13 14 14 13 13 12 12 11 10 9 9 8 7 7 6 6 6 6 6 7 7 8 9 10 11 13 14 15 17 19 21 22 24 26 28 30
13 13 12 12 12 12 13 13 13 13 13 13 12 12 11 11 10 9 9 8 7 7 7 7 7 7 8 8 9 10 11 12 13 14 16 17 18 19 21 22 24 26 29
15 14 13 13 12 12 13 13 13 13 13 12 12 11 11 11 11 10 10 9 9 8 8 8 8 9 9 9 10 11 12 13 14 14 15 16 17 19 20 21 23 24 26
17 16 15 14 13 13 13 13 13 13 13 12 12 11 11 11 11 11 11 10 10 10 10 10 9 10 10 10 11 12 13 13 14 15 15 16 17 18 19 21 22 23 24
19 18 17 16 15 14 14 13 13 13 13 12 12 12 12 12 12 12 12 11 11 11 11 11 11 11 11 12 12 13 13 14 14 15 16 16 17 18 19 20 21 22 23
21 20 19 18 17 16 16 15 14 13 13 13 13 12 12 13 13 13 13 13 12 12 12 12 12 12 12 12 13 13 14 14 14 15 16 16 17 17 18 19 20 20 21
24 23 22 21 20 19 18 17 16 15 14 14 14 13 13 13 13 13 13 13 13 13 13 13 13 13 13 13 13 14 14 15 15 15 16 16 17 17 18 19 19 20 20
26 25 24 23 22 21 20 19 18 17 17 16 15 15 14 14 14 14 14 14 14 14 14 14 14 14 14 15 15 15 15 16 16 17 17 17 18 18 19 19 20 20 20
28 28 27 26 25 24 23 22 21 20 19 18 17 16 16 15 15 15 15 15 16 16 15 15 16 16 16 16 16 17 17 17 17 18 18 19 19 19 20 20 21 21 22
30 30 29 29 28 27 26 25 24 23 22 21 20 19 18 17 17 17 17 17 17 17 17 17 17 17 18 18 18 18 18 18 19 19 19 20 20 21 21 22 22 22 23
32 31 31 31 30 29 28 27 26 26 25 24 22 21 20 20 19 19 19 18 18 18 18 19 19 19 20 20 20 20 20 20 20 21 21 22 22 23 23 23 24 24 25
34 34 33 33 32 32 31 30 29 28 27 26 25 24 23 22 22 21 21 20 20 21 21 21 21 22 22 22 22 22 23 23 23 23 23 23 23 24 25 25 25 26 26
36 36 35 35 35 34 33 32 31 30 30 29 28 27 26 25 24 24 23 23 22 23 23 23 24 24 25 25 24 25 25 25 25 26 26 26 26 26 27 27 28 28 28
38 38 38 37 36 36 35 34 34 33 32 31 30 29 28 27 26 26 25 25 25 25 25 25 26 26 26 27 27 27 27 27 28 28 28 28 29 29 29 30 30 30 31
41 40 40 39 38 38 37 36 35 35 34 33 32 31 30 29 28 28 27 27 27 27 27 27 27 28 28 28 28 29 29 29 30 30 31 31 31 31 32 32 32 33 33
44 43 42 41 40 39 39 38 37 36 35 34 33 32 31 31 30 30 29 29 29 29 29 29 29 29 30 30 31 31 31 31 32 32 33 33 33 34 34 34 35 35 35
46 45 44 43 42 41 41 40 39 38 37 36 35 34 33 32 32 31 31 31 30 31 31 31 31 32 32 32 33 33 34 34 34 34 35 35 35 36 36 37 37 37 38
48 48 47 46 45 43 42 41 40 39 38 37 36 36 35 34 33 33 33 32 33 33 33 33 33 34 34 34 35 36 36 36 36 36 36 37 37 38 38 39 39 40 40
51 50 49 48 46 45 44 43 42 41 40 39 38 37 37 36 35 34 34 34 34 34 35 35 36 36 37 37 37 37 37 37 37 37 37 38 39 39 39 40 41 41 42
53 52 51 50 49 47 46 46 44 43 42 41 40 39 38 37 37 36 36 36 36 36 36 37 38 38 38 38 38 38 38 38 39 39 40 40 40 41 41 42 42 43 44
55 54 53 52 52 50 49 47 46 45 44 42 41 40 40 39 39 38 38 37 37 38 38 39 39 39 39 39 39 40 40 40 41 41 42 42 42 43 43 44 44 45 46
56 56 55 54 53 52 51 49 48 47 46 44 43 43 42 41 41 40 40 39 39 40 40 40 40 41 41 41 41 41 41 42 42 43 43 44 44 45 45 45 46 47 48
55 56 56 55 54 53 53 51 50 48 47 46 45 44 44 43 42 41 41 41 41 41 41 41 41 42 42 42 42 42 43 43 43 44 44 45 45 46 46 47 47 48 49
Wind_Direction
326 332 337 341 344 349 353 355 356 357 358 359 359 359 359 358 356 356 356 352 345 339 327 310 290 280 271 263 258 256 253 249 247 244 243 243 244 245 245 246 246 245 243
318 325 332 337 341 345 349 351 353 356 357 359 359 357 355 353 350 350 349 348 344 334 325 312 299 287 282 274 268 265 260 255 253 251 248 248 248 247 248 248 249 248 246
307 315 324 331 336 341 346 348 349 351 354 357 359 359 358 355 353 352 349 346 341 333 324 316 302 290 286 280 274 272 268 264 260 258 256 253 251 250 251 251 251 250 249
296 304 313 321 328 335 340 344 346 347 350 353 356 359 359 359 358 354 351 347 343 337 327 321 311 298 292 288 282 279 277 274 270 268 264 261 258 254 254 254 253 253 253
286 293 301 310 318 326 332 337 341 344 346 349 353 357 359 359 358 355 350 344 339 334 330 323 317 309 301 295 290 285 283 281 279 274 270 268 264 260 258 257 257 256 257
277 284 290 298 306 315 323 330 334 338 341 344 346 349 354 355 354 352 349 344 339 332 327 323 318 312 306 299 292 288 286 284 283 280 275 274 272 267 264 260 259 258 259
269 274 281 287 294 302 310 318 324 330 334 337 340 342 345 347 348 347 346 343 338 335 329 324 319 314 309 304 298 293 290 288 287 286 283 281 279 275 271 268 264 261 260
264 267 272 278 284 291 298 305 312 318 324 327 330 333 335 337 339 340 339 337 333 330 327 324 320 316 312 308 305 302 298 294 291 289 287 286 284 281 278 274 270 267 264
260 262 266 270 276 281 287 294 300 306 311 316 320 324 326 328 329 331 332 332 329 327 325 322 319 315 312 310 307 305 303 299 296 294 291 289 286 285 283 278 274 270 267
257 259 261 265 269 273 278 283 289 294 299 305 310 314 318 320 322 323 326 327 326 324 323 322 318 315 311 309 306 305 304 301 298 295 293 291 288 286 285 282 278 274 271
256 258 259 261 264 268 271 275 279 284 289 294 300 304 308 312 315 317 319 321 322 321 320 320 318 315 311 309 307 305 304 302 300 298 296 294 292 289 288 286 282 279 276
257 257 258 259 261 263 266 270 273 276 281 285 290 295 299 303 307 310 314 316 317 318 317 317 316 314 312 310 307 305 303 302 300 298 296 295 293 291 289 288 286 283 280
257 257 257 258 259 261 263 266 268 271 274 278 282 287 291 295 299 303 306 310 312 313 313 314 314 313 311 310 307 305 303 302 300 299 297 295 293 291 290 288 287 285 283
257 257 257 257 258 259 261 263 265 267 270 273 277 280 283 288 292 296 300 303 306 308 310 311 312 311 310 308 306 304 302 299 298 298 297 295 293 292 291 290 288 287 285
257 257 257 257 258 259 260 262 264 265 267 270 273 276 279 282 286 290 294 297 300 303 305 306 307 308 307 306 304 303 301 299 298 297 296 295 294 292 291 289 288 287 286
256 256 256 256 257 258 259 261 262 264 265 267 270 273 276 279 282 285 288 292 295 298 300 302 303 304 305 304 302 300 299 298 297 296 295 294 293 291 290 289 288 287 286
256 256 255 255 256 257 258 259 261 262 264 266 268 271 274 277 280 282 285 288 291 294 297 299 301 302 303 302 301 300 299 298 297 295 294 292 292 291 290 289 288 288 287
254 254 254 255 255 256 257 258 259 261 263 265 267 270 272 275 277 280 282 285 288 292 295 297 299 300 301 302 301 300 298 298 297 295 294 292 291 290 290 289 289 288 287
252 252 253 254 254 255 256 256 257 259 262 264 266 269 271 273 276 278 280 283 286 289 293 295 298 299 300 301 300 299 298 297 297 296 295 293 291 290 289 289 289 288 287
250 250 250 251 252 253 254 256 257 258 260 262 264 267 270 272 274 277 279 282 285 288 291 294 296 297 299 300 300 299 299 298 297 296 295 293 292 291 290 289 289 288 287
249 248 248 249 250 251 253 254 256 257 259 260 262 265 268 271 273 276 279 281 284 287 289 292 295 296 297 298 299 299 299 298 297 296 295 294 293 292 291 290 289 288 288
246 247 247 248 248 249 251 252 254 255 257 259 261 264 267 270 273 275 278 281 283 286 289 292 294 296 297 298 298 298 297 297 296 296 296 296 295 294 293 292 291 290 289
245 245 245 245 246 247 249 250 252 254 256 258 260 263 266 269 272 275 277 280 283 286 289 292 294 296 297 297 297 297 297 297 296 296 297 296 295 295 294 293 292 291 291
243 243 243 244 245 246 247 248 250 252 254 256 259 261 265 268 271 274 277 280 283 287 290 291 294 295 296 297 297 297 297 297 297 297 296 296 296 295 294 294 294 293 292
242 241 242 242 243 244 245 246 247 250 252 254 257 260 263 267 270 273 276 280 283 287 289 290 293 294 296 296 296 297 297 297 297 297 296 296 296 295 295 295 295 294 294
240 240 240 241 242 243 244 245 246 248 250 253 256 259 262 265 269 272 276 279 283 286 288 290 292 294 295 295 296 297 297 297 297 297 297 297 297 296 296 296 296 295 295
Height
5819 5817 5815 5813 5811 5808 5806 5804 5801 5798 5796 5793 5791 5789 5787 5785 5784 5783 5782 5781 5780 5780 5780 5780 5780 5780 5781 5781 5782 5784 5785 5787 5789 5790 5792 5795 5797 5799 5801 5804 5806 5809 5812
5817 5816 5814 5812 5810 5808 5806 5803 5801 5799 5796 5793 5791 5789 5787 5785 5784 5782 5781 5781 5780 5779 5779 5779 5779 5779 5779 5779 5780 5781 5781 5783 5784 5785 5787 5788 5790 5792 5794 5796 5799 5801 5803
5815 5814 5813 5811 5809 5807 5805 5803 5801 5798 5796 5793 5791 5789 5787 5785 5783 5782 5781 5780 5779 5779 5778 5778 5777 5777 5777 5777 5778 5778 5778 5779 5780 5781 5782 5783 5784 5786 5788 5789 5791 5793 5795
5813 5812 5811 5810 5808 5806 5804 5802 5800 5798 5795 5793 5791 5789 5787 5785 5783 5781 5780 5779 5778 5778 5777 5776 5776 5775 5775 5775 5775 5775 5775 5776 5776 5776 5777 5777 5778 5780 5781 5782 5784 5785 5787
5810 5809 5809 5808 5806 5805 5803 5801 5799 5797 5795 5793 5790 5788 5787 5785 5783 5781 5780 5779 5778 5777 5776 5775 5774 5774 5773 5773 5772 5772 5772 5772 5772 5772 5772 5772 5773 5774 5775 5775 5776 5777 5779
5806 5806 5806 5805 5804 5803 5801 5800 5798 5796 5794 5792 5790 5788 5786 5784 5782 5781 5779 5778 5777 5776 5775 5774 5772 5772 5771 5770 5770 5769 5769 5769 5768 5768 5768 5768 5768 5768 5768 5769 5770 5771 5772
5802 5802 5802 5802 5801 5800 5799 5798 5796 5794 5793 5791 5789 5787 5785 5783 5781 5780 5778 5777 5775 5774 5773 5772 5771 5770 5769 5768 5767 5767 5766 5765 5765 5764 5763 5763 5763 5763 5763 5763 5763 5763 5764
5797 5798 5798 5798 5797 5797 5796 5795 5794 5792 5791 5789 5787 5786 5784 5782 5780 5778 5777 5775 5774 5772 5771 5770 5769 5768 5766 5765 5764 5763 5762 5762 5761 5760 5759 5759 5758 5758 5757 5757 5757 5757 5758
5792 5792 5793 5793 5793 5793 5792 5792 5791 5790 5788 5787 5785 5784 5782 5780 5778 5777 5775 5773 5771 5770 5769 5767 5766 5765 5764 5763 5761 5760 5759 5758 5757 5756 5755 5754 5753 5753 5752 5752 5751 5751 5752
5785 5786 5787 5788 5788 5788 5788 5787 5787 5786 5785 5784 5782 5781 5779 5778 5776 5774 5772 5771 5769 5767 5766 5764 5763 5762 5760 5759 5758 5757 5755 5754 5753 5752 5751 5750 5749 5748 5747 5747 5746 5746 5745
5778 5779 5780 5781 5782 5782 5782 5782 5782 5781 5781 5780 5779 5778 5776 5775 5773 5771 5769 5768 5766 5764 5763 5761 5759 5758 5757 5755 5754 5753 5751 5750 5748 5747 5746 5745 5744 5743 5742 5741 5741 5740 5739
5771 5772 5773 5774 5775 5775 5776 5776 5776 5776 5776 5775 5774 5773 5772 5771 5769 5767 5766 5764 5763 5761 5759 5757 5756 5754 5753 5751 5749 5748 5747 5745 5744 5743 5741 5740 5739 5738 5737 5736 5735 5734 5733
5763 5764 5765 5766 5767 5768 5769 5769 5770 5770 5770 5769 5769 5768 5767 5766 5765 5763 5762 5760 5759 5757 5755 5753 5752 5750 5748 5747 5745 5743 5742 5740 5739 5737 5736 5735 5733 5732 5731 5730 5729 5728 5727
5754 5755 5756 5757 5759 5760 5761 5762 5762 5763 5763 5763 5763 5762 5762 5761 5760 5758 5757 5755 5754 5752 5751 5749 5747 5745 5743 5741 5740 5738 5736 5735 5733 5732 5730 5729 5727 5726 5724 5723 5722 5721 5720
5744 5745 5747 5748 5750 5751 5752 5753 5754 5755 5755 5756 5756 5755 5755 5754 5753 5752 5751 5750 5748 5747 5745 5743 5741 5739 5737 5735 5734 5732 5730 5728 5727 5725 5723 5722 5720 5719 5717 5716 5714 5713 5712
5733 5735 5736 5738 5740 5741 5743 5744 5745 5746 5747 5747 5747 5748 5747 5747 5746 5745 5744 5743 5742 5740 5739 5737 5735 5733 5731 5729 5727 5725 5723 5721 5719 5718 5716 5714 5713 5711 5709 5708 5706 5705 5703
5721 5723 5725 5727 5729 5731 5733 5734 5735 5737 5737 5738 5739 5739 5739 5739 5738 5738 5737 5736 5735 5733 5732 5730 5728 5726 5724 5721 5719 5717 5715 5713 5711 5710 5708 5706 5704 5702 5700 5699 5697 5695 5694
5708 5711 5713 5715 5718 5719 5722 5724 5725 5726 5728 5728 5729 5730 5730 5730 5730 5729 5728 5728 5727 5725 5724 5722 5720 5718 5716 5713 5711 5709 5707 5705 5703 5701 5699 5697 5695 5693 5691 5689 5687 5685 5683
5694 5697 5700 5703 5705 5707 5710 5712 5714 5716 5717 5718 5719 5720 5720 5720 5720 5720 5719 5719 5718 5716 5715 5713 5711 5709 5707 5705 5702 5700 5698 5696 5693 5691 5689 5686 5684 5682 5680 5678 5676 5674 5672
5680 5683 5686 5689 5692 5695 5697 5700 5702 5704 5706 5708 5709 5710 5710 5710 5711 5710 5710 5709 5708 5707 5706 5704 5702 5700 5698 5696 5693 5691 5688 5686 5683 5681 5678 5676 5673 5671 5669 5667 5664 5662 5660
5664 5668 5671 5674 5678 5681 5684 5687 5690 5692 5694 5696 5698 5699 5700 5700 5700 5700 5700 5699 5698 5697 5696 5694 5692 5690 5688 5686 5683 5680 5678 5675 5672 5670 5667 5664 5662 5659 5657 5654 5652 5649 5647
5647 5652 5656 5660 5664 5667 5671 5674 5677 5679 5682 5684 5686 5688 5688 5689 5689 5690 5689 5689 5688 5687 5685 5684 5682 5680 5677 5675 5672 5669 5666 5664 5661 5658 5655 5653 5650 5647 5644 5641 5638 5636 5633
5630 5635 5639 5644 5648 5652 5656 5660 5663 5666 5669 5672 5674 5675 5676 5677 5678 5678 5678 5678 5677 5676 5674 5673 5671 5669 5666 5664 5661 5658 5655 5652 5649 5646 5643 5640 5637 5634 5631 5628 5625 5622 5619
5611 5617 5622 5627 5632 5637 5641 5645 5649 5652 5656 5658 5661 5663 5664 5665 5666 5666 5666 5666 5665 5664 5663 5661 5659 5657 5655 5652 5649 5646 5643 5640 5637 5634 5631 5628 5624 5621 5617 5614 5611 5607 5604
5592 5598 5604 5609 5615 5621 5625 5630 5634 5638 5641 5645 5648 5650 5651 5653 5653 5654 5654 5654 5653 5652 5651 5649 5647 5645 5643 5640 5637 5634 5631 5628 5625 5621 5618 5614 5611 5607 5604 5600 5596 5592 5588
5573 5579 5586 5592 5598 5604 5609 5614 5619 5623 5627 5630 5633 5636 5638 5640 5641 5641 5642 5641 5641 5640 5638 5637 5635 5633 5630 5627 5625 5622 5618 5615 5612 5608 5604 5601 5597 5593 5589 5585 5581 5577 5573